Hourly Data Report for October 26, 2016

All times are specified in Local Standard Time (LST). Add 1 hour to adjust for Daylight Saving Time where and when it is observed.

CORAL HARBOUR A
NUNAVUT

64°11'36.000" N
83°21'34.000" W
62.20 m
2301002
71915
YZS

Download Data

Hourly Data (October 2016)
Hourly Data Report for October 26, 2016
Temp Definition
°C
Dew Point Temp Definition
°C
Rel Hum Definition
%
Wind Dir Definition
10's deg

Wind Spd Definition
km/h
Visibility Definition
km
Stn Press Definition
kPa
Hmdx Definition


Wind Chill Definition


Weather Definition


TIME
00:00 Legend Double Dagger -4.2 -5.2 93 27 20 24.1 101.64   -11 Snow
01:00 Legend Double Dagger -4.7 -5.7 93 27 21 24.1 101.61   -11 Snow
02:00 Legend Double Dagger -4.4 -5.7 91 28 23 19.3 101.57   -11 Snow
03:00 Legend Double Dagger -5.7 -7.1 90 29 18 24.1 101.57   -12 Snow
04:00 Legend Double Dagger -5.8 -7.5 88 28 22 24.1 101.54   -13 Snow
05:00 Legend Double Dagger -6.3 -7.7 90 26 14 24.1 101.52   -12 Snow
06:00 Legend Double Dagger -5.1 -7.1 86 33 13 24.1 101.50   -10 Snow
07:00 Legend Double Dagger -5.0 -7.3 84 17 5 24.1 101.50   -7 Snow
08:00 Legend Double Dagger -7.2 -8.9 88 29 15 24.1 101.46   -13 LegendNANA
09:00 Legend Double Dagger -10.1 -11.9 87 1 8 24.1 101.44   -15 LegendNANA
10:00 Legend Double Dagger -10.8 -12.7 86 31 13 24.1 101.39   -17 Mainly Clear
11:00 Legend Double Dagger -9.0 -11.1 85 33 8 24.1 101.35   -13 LegendNANA
12:00 Legend Double Dagger -8.6 -10.5 86 30 7 24.1 101.32   -12 LegendNANA
13:00 Legend Double Dagger -6.7 -8.5 87 27 15 24.1 101.27   -13 Mostly Cloudy
14:00 Legend Double Dagger -6.5 -8.2 88 3 7 24.1 101.22   -10 LegendNANA
15:00 Legend Double Dagger -6.3 -7.7 90 26 7 24.1 101.19   -10 LegendNANA
16:00 Legend Double Dagger -6.0 -6.8 94 25 13 24.1 101.12   -11 Snow Grains
17:00 Legend Double Dagger -5.1 -5.8 95 22 16 24.1 101.07   -11 Snow Grains
18:00 Legend Double Dagger -4.6 -5.4 94 26 24 24.1 101.02   -12 Snow Grains
19:00 Legend Double Dagger -4.1 -4.9 94 25 17 24.1 100.97   -10 Snow Grains
20:00 Legend Double Dagger -4.7 -5.4 95 24 19 24.1 100.88   -11 Snow Grains
21:00 Legend Double Dagger -4.3 -5.1 94 23 23 24.1 100.78   -11 Snow Grains
22:00 Legend Double Dagger -3.9 -4.6 95 25 27 24.1 100.69   -11 Snow
23:00 Legend Double Dagger -3.4 -4.5 92 27 29 19.3 100.66   -11 Snow

Notes on Data Quality.

Legend

  • E = Estimated
  • M = Missing
  • NA = Not Available
  • ‡ = Partner data that is not subject to review by the National Climate Archives
Date modified: